Flag for India Weather past 2 weeks in Hugli-Chinsurah, West Bengal, India

Now
81 °F

Partly cloudy.


Feels Like: 88 °F
Forecast: 79 / 89 °F
Wind: 12 mph from South

Location: Calcutta / Dum Dum

Current Time: Sep 21, 2014 at 6:27:25 AM

Latest Report: Sep 21, 2014 at 5:50 AM


Visibility: 2 mi

Pressure: 29.56 "Hg

Humidity: 94%

Dew point: 79 °F

Location of Hugli-ChinsurahLocation

Historic Weather in Hugli-Chinsurah — Graph

°F

Hugli-Chinsurah temperature yesterday

Maximum temperature yesterday: 82 °F (at 12:20 AM)
Minimum temperature yesterday: 79 °F (at 1:50 PM)
Average temperature yesterday: 81 °F

Past Weeks' High & Low Weather Summary

 TemperatureHumidityPressure
High95 °F (Sep 15, 12:20 PM)100% (Sep 21, 1:50 AM)29.77 "Hg (Sep 21, 1:50 AM)
Low79 °F (Sep 20, 1:50 PM)53% (Sep 17, 2:20 PM)29.45 "Hg (Sep 6, 5:20 PM)
Average86 °F82%29.62 "Hg
* Reported Sep 6 4:50 AM — Sep 21 5:20 AM, Hugli-Chinsurah, Weather by CustomWeather, © 2014

Note: Actual official high and low records may vary slightly from our data, if they occured in-between our weather recording intervals... More about our weather records

Advertising

Hugli-Chinsurah weather history for previous 24 hours

 ConditionsComfort  
Time TempWeatherWind HumidityBarometerVisibility
5:20 AM
Sep 21
79 °FPartly cloudy.9 mph94%29.56 "Hg1 mi
4:50 AM79 °FThunderstorms. Mostly cloudy.6 mph94%29.56 "Hg1 mi
4:20 AM79 °FThunderstorms. Mostly cloudy.6 mph94%29.56 "Hg1 mi
3:50 AM79 °FThunderstorms. Mostly cloudy.8 mph94%29.56 "Hg1 mi
3:20 AM79 °FThunderstorms. Mostly cloudy.8 mph94%29.53 "Hg1 mi
2:20 AM79 °FThunderstorms. Mostly cloudy.9 mph94%29.56 "Hg1 mi
1:50 AM79 °FThunderstorms. Mostly cloudy.12 mph100%29.56 "Hg1 mi
1:20 AM81 °FThunderstorms. Mostly cloudy.16 mph94%29.56 "Hg1 mi
12:50 AM81 °FThunderstorms. Mostly cloudy.12 mph94%29.56 "Hg1 mi
12:20 AM81 °FThunderstorms. Mostly cloudy.10 mph94%29.59 "Hg1 mi
11:20 PM
Sep 20
81 °FLight rain. Mostly cloudy.9 mph94%29.59 "Hg1 mi
6:50 PM81 °FLight rain. Mostly cloudy.6 mph94%29.56 "Hg1 mi
6:20 PM81 °FLight rain. Mostly cloudy.9 mph94%29.56 "Hg1 mi
5:50 PM81 °FLight rain. More clouds than sun.8 mph94%29.53 "Hg1 mi
5:20 PM81 °FLight rain. More clouds than sun.7 mph94%29.53 "Hg1 mi
4:50 PM81 °FLight rain. More clouds than sun.8 mph94%29.53 "Hg1 mi
3:50 PM81 °FLight rain. More clouds than sun.7 mph94%29.53 "Hg1 mi
3:20 PM81 °FLight rain. More clouds than sun.7 mph89%29.56 "Hg1 mi
2:20 PM79 °FLight rain. More clouds than sun.7 mph94%29.56 "Hg1 mi
1:50 PM79 °FLight rain. More clouds than sun.6 mph94%29.56 "Hg1 mi
1:20 PM81 °FLight rain. More clouds than sun.12 mph94%29.59 "Hg1 mi
12:20 PM81 °FThunderstorms. Mostly cloudy.6 mph94%29.59 "Hg1 mi
11:20 AM82 °FRain. More clouds than sun.6 mph89%29.62 "Hg1 mi
10:50 AM82 °FThunderstorms. More clouds than sun.7 mph89%29.65 "Hg1 mi
10:20 AM82 °FThunderstorms. More clouds than sun.7 mph89%29.65 "Hg1 mi
9:50 AM82 °FThunderstorms. Broken clouds.9 mph89%29.65 "Hg2 mi
9:20 AM82 °FThunderstorms. Broken clouds.8 mph89%29.65 "Hg2 mi
8:50 AM81 °FThunderstorms. Broken clouds.6 mph94%29.65 "Hg2 mi
8:20 AM81 °FThunderstorms. Broken clouds.7 mph89%29.65 "Hg2 mi
7:50 AM81 °FThunderstorms. Broken clouds.5 mph89%29.62 "Hg2 mi
6:50 AM81 °FLight rain. Broken clouds.9 mph94%29.59 "Hg2 mi
6:20 AM81 °FLight rain. Broken clouds.8 mph94%29.59 "Hg2 mi
Weather by CustomWeather, © 2014

See weather overviewHow to use our weather pages